Grants-Milan, NM

3:18 AM MDT on August 17, 2017 (GMT -0600)
Grants-Milan Municipal

Weather History for KGNT - September, 2014

Change the Weather History Date:

Saturday, September 27, 2014

  Actual Average Record
Temperature  
Mean Temperature 60 °F -  
Max Temperature 75 °F 77 °F 87 °F (1953)
Min Temperature 46 °F 40 °F 20 °F (1970)
Degree Days  
Heating Degree Days 4    
Growing Degree Days 10 (Base 50)    
Moisture  
Dew Point 51 °F    
Average Humidity 73    
Maximum Humidity 94    
Minimum Humidity 41    
Precipitation  
Precipitation 0.09 in - - ()
Sea Level Pressure  
Sea Level Pressure 30.13 in    
Wind  
Wind Speed 7 mph (SSE)    
Max Wind Speed 20 mph    
Max Gust Speed 24 mph    
Visibility 10 miles    
Events Rain , Thunderstorm    
Averages and records for this station are not official NWS values.
T = Trace of Precipitation, MM = Missing Value Source: NWS Daily Summary

Daily Weather History Graph

Daily Weather History Graph

Search for Another Location

Airport or City:

Trip Planner

Search our weather history database for the weather conditions in past years. The results will help you decide how hot, cold, wet, or windy it might be!

Date:

Astronomy

Sep. 27, 2014 Rise Set
Actual Time 7:03 AM MDT 7:01 PM MDT
Civil Twilight 6:38 AM MDT 7:26 PM MDT
Nautical Twilight 6:08 AM MDT 7:55 PM MDT
Astronomical Twilight 5:38 AM MDT 8:25 PM MDT
Moon 10:13 AM MDT (9/27) 9:11 PM MDT (9/27)
Length of Visible Light 12h 48m
Length of Day
11h 57m
Waxing Crescent, 12% of the Moon is Illuminated
Sep 27
Waxing Crescent
Oct 1
First Quarter
Oct 8
Full
Oct 15
Last Quarter
Oct 23
New

Hourly Weather History & Observations

Time (MDT) Temp. Windchill Dew Point Humidity Pressure Visibility Wind Dir Wind Speed Gust Speed Precip Events Conditions
12:16 AM 59.0 °F - 48.2 °F 67% 30.20 in 10.0 mi ESE 8.1 mph - N/A   Scattered Clouds
12:36 AM 57.2 °F - 48.2 °F 72% 30.20 in 10.0 mi SE 4.6 mph - N/A   Scattered Clouds
12:56 AM 57.2 °F - 48.2 °F 72% 30.20 in 10.0 mi South 3.5 mph - N/A   Mostly Cloudy
1:16 AM 55.4 °F - 48.2 °F 77% 30.20 in 10.0 mi SE 6.9 mph - N/A   Scattered Clouds
1:36 AM 53.6 °F - 48.2 °F 82% 30.20 in 10.0 mi Calm Calm - N/A   Clear
2:16 AM 53.6 °F - 48.2 °F 82% 30.20 in 10.0 mi SSE 6.9 mph - N/A   Scattered Clouds
2:36 AM 55.4 °F - 50.0 °F 82% 30.19 in 10.0 mi South 4.6 mph - N/A   Scattered Clouds
2:56 AM 59.0 °F - 48.2 °F 67% 30.18 in 10.0 mi NE 6.9 mph 20.7 mph N/A Rain Light Rain
3:16 AM 59.0 °F - 48.2 °F 67% 30.18 in 10.0 mi SE 6.9 mph - N/A   Clear
3:36 AM 53.6 °F - 48.2 °F 82% 30.18 in 10.0 mi ESE 4.6 mph - N/A   Clear
3:56 AM 53.6 °F - 48.2 °F 82% 30.17 in 10.0 mi ESE 4.6 mph - N/A   Clear
4:16 AM 53.6 °F - 48.2 °F 82% 30.17 in 10.0 mi SE 5.8 mph - N/A   Clear
4:56 AM 53.6 °F - 48.2 °F 82% 30.16 in 10.0 mi South 5.8 mph - N/A   Mostly Cloudy
5:16 AM 53.6 °F - 50.0 °F 88% 30.16 in 10.0 mi South 3.5 mph - N/A   Mostly Cloudy
5:36 AM 53.6 °F - 50.0 °F 88% 30.16 in 10.0 mi South 3.5 mph - N/A   Scattered Clouds
5:56 AM 51.8 °F - 48.2 °F 88% 30.16 in 10.0 mi South 5.8 mph - N/A   Clear
6:16 AM 51.8 °F - 48.2 °F 88% 30.17 in 10.0 mi South 4.6 mph - N/A   Clear
6:37 AM 50.0 °F - 46.4 °F 87% 30.17 in 10.0 mi Calm Calm - N/A   Scattered Clouds
6:56 AM 46.4 °F 44.3 °F 44.6 °F 93% 30.17 in 10.0 mi SSW 4.6 mph - N/A   Scattered Clouds
7:16 AM 48.2 °F - 46.4 °F 93% 30.17 in 10.0 mi SSW 3.5 mph - N/A   Clear
7:36 AM 50.0 °F - 48.2 °F 94% 30.17 in 10.0 mi South 4.6 mph - N/A   Clear
7:56 AM 53.6 °F - 51.8 °F 94% 30.17 in 10.0 mi SE 6.9 mph - N/A   Clear
8:17 AM 55.4 °F - 51.8 °F 88% 30.18 in 10.0 mi SE 9.2 mph - N/A   Clear
8:36 AM 57.2 °F - 51.8 °F 82% 30.18 in 10.0 mi SE 8.1 mph - N/A   Clear
8:56 AM 62.6 °F - 53.6 °F 72% 30.18 in 10.0 mi SE 9.2 mph - N/A   Clear
9:16 AM 64.4 °F - 53.6 °F 68% 30.18 in 10.0 mi SE 8.1 mph - N/A   Clear
9:36 AM 64.4 °F - 51.8 °F 64% 30.18 in 10.0 mi SE 10.4 mph 16.1 mph N/A   Clear
9:56 AM 66.2 °F - 51.8 °F 60% 30.18 in 10.0 mi SE 10.4 mph 16.1 mph N/A   Clear
10:16 AM 68.0 °F - 51.8 °F 56% 30.18 in 10.0 mi SE 11.5 mph 16.1 mph N/A   Clear
10:36 AM 69.8 °F - 51.8 °F 53% 30.17 in 10.0 mi SE 10.4 mph 18.4 mph N/A   Clear
10:56 AM 71.6 °F - 51.8 °F 50% 30.17 in 10.0 mi SE 8.1 mph 16.1 mph N/A   Scattered Clouds
11:16 AM 73.4 °F - 50.0 °F 44% 30.16 in 10.0 mi SSE 11.5 mph 17.3 mph N/A   Scattered Clouds
11:36 AM 73.4 °F - 51.8 °F 47% 30.15 in 10.0 mi ESE 10.4 mph 17.3 mph N/A   Scattered Clouds
11:56 AM 75.2 °F - 51.8 °F 44% 30.14 in 10.0 mi ESE 12.7 mph 19.6 mph N/A   Scattered Clouds
12:16 PM 75.2 °F - 51.8 °F 44% 30.14 in 10.0 mi ESE 10.4 mph 18.4 mph N/A   Clear
12:36 PM 75.2 °F - 51.8 °F 44% 30.13 in 10.0 mi SE 15.0 mph 19.6 mph N/A   Clear
12:56 PM 75.2 °F - 50.0 °F 41% 30.12 in 10.0 mi SE 16.1 mph 20.7 mph N/A   Scattered Clouds
1:16 PM 73.4 °F - 50.0 °F 44% 30.11 in 10.0 mi SSE 15.0 mph 19.6 mph N/A   Mostly Cloudy
1:36 PM 71.6 °F - 48.2 °F 43% 30.11 in 10.0 mi SSE 12.7 mph 18.4 mph N/A   Overcast
1:56 PM 71.6 °F - 50.0 °F 46% 30.09 in 10.0 mi South 6.9 mph - N/A Thunderstorm Thunderstorm
2:16 PM 69.8 °F - 48.2 °F 46% 30.09 in 10.0 mi South 19.6 mph 23.0 mph N/A Rain , Thunderstorm Light Thunderstorms and Rain
2:36 PM 59.0 °F - 53.6 °F 82% 30.11 in 10.0 mi WSW 13.8 mph 23.0 mph 0.01 in Rain , Thunderstorm Light Thunderstorms and Rain
2:56 PM 59.0 °F - 55.4 °F 88% 30.11 in 5.0 mi SSW 10.4 mph 23.0 mph 0.04 in Rain , Thunderstorm Thunderstorms and Rain
3:16 PM 59.0 °F - 55.4 °F 88% 30.08 in 10.0 mi West 11.5 mph 16.1 mph 0.01 in Rain Light Rain
3:36 PM 60.8 °F - 55.4 °F 82% 30.08 in 10.0 mi WSW 18.4 mph 24.2 mph 0.01 in   Drizzle
3:56 PM 60.8 °F - 53.6 °F 77% 30.07 in 7.0 mi WSW 9.2 mph - 0.03 in Rain Rain
4:16 PM 60.8 °F - 53.6 °F 77% 30.06 in 10.0 mi WSW 8.1 mph - 0.02 in Rain Light Rain
4:36 PM 62.6 °F - 57.2 °F 82% 30.04 in 10.0 mi Calm Calm - 0.02 in   Overcast
4:56 PM 64.4 °F - 57.2 °F 77% 30.04 in 10.0 mi Calm Calm - 0.02 in   Scattered Clouds
5:16 PM 66.2 °F - 57.2 °F 73% 30.03 in 10.0 mi Calm Calm - N/A   Clear
5:36 PM 66.2 °F - 55.4 °F 68% 30.03 in 10.0 mi West 3.5 mph - N/A   Clear
5:56 PM 68.0 °F - 55.4 °F 64% 30.03 in 10.0 mi South 5.8 mph - N/A   Clear
6:16 PM 66.2 °F - 55.4 °F 68% 30.03 in 10.0 mi South 4.6 mph - N/A   Clear
6:36 PM 62.6 °F - 55.4 °F 77% 30.03 in 10.0 mi South 3.5 mph - N/A   Clear
6:56 PM 59.0 °F - 55.4 °F 88% 30.04 in 10.0 mi SSW 8.1 mph - N/A   Mostly Cloudy
7:16 PM 62.6 °F - 46.4 °F 55% 30.04 in 10.0 mi SW 11.5 mph 24.2 mph N/A   Overcast
7:36 PM 60.8 °F - 48.2 °F 63% 30.06 in 10.0 mi South 5.8 mph - N/A   Mostly Cloudy
7:56 PM 57.2 °F - 51.8 °F 82% 30.06 in 10.0 mi Calm Calm - N/A   Scattered Clouds
8:16 PM 59.0 °F - 51.8 °F 77% 30.07 in 10.0 mi SSE 8.1 mph - N/A   Mostly Cloudy
8:36 PM 57.2 °F - 50.0 °F 77% 30.08 in 10.0 mi Calm Calm - N/A   Scattered Clouds
8:56 PM 57.2 °F - 50.0 °F 77% 30.08 in 10.0 mi South 3.5 mph - N/A   Scattered Clouds
9:16 PM 57.2 °F - 50.0 °F 77% 30.09 in 10.0 mi Calm Calm - N/A   Scattered Clouds
9:36 PM 57.2 °F - 50.0 °F 77% 30.09 in 10.0 mi Calm Calm - N/A   Clear
9:56 PM 55.4 °F - 51.8 °F 88% 30.09 in 10.0 mi SE 4.6 mph - N/A   Mostly Cloudy
10:16 PM 55.4 °F - 51.8 °F 88% 30.10 in 10.0 mi SSE 4.6 mph - N/A   Mostly Cloudy
10:36 PM 55.4 °F - 51.8 °F 88% 30.09 in 10.0 mi ESE 9.2 mph - N/A   Mostly Cloudy
10:56 PM 53.6 °F - 51.8 °F 94% 30.11 in 10.0 mi SE 4.6 mph - N/A   Scattered Clouds
11:16 PM 55.4 °F - 51.8 °F 88% 30.11 in 10.0 mi South 6.9 mph - N/A   Scattered Clouds
11:36 PM 55.4 °F - 51.8 °F 88% 30.11 in 10.0 mi SSE 3.5 mph - N/A   Mostly Cloudy
11:56 PM 53.6 °F - 48.2 °F 82% 30.12 in 10.0 mi SSE 5.8 mph - N/A   Scattered Clouds